THOR ABLESTAR DEB, 125

Orbit data source: Space-Track

THOR ABLESTAR DEB, 125 is space debris in LEO originally from a launch on Thu, 29 Jun 1961 UTC launched from the Air Force Eastern Test Range (AFETR). Debris objects in space refer to the collection of defunct objects orbiting the Earth. Examples of debris include non-operational satellites, rocket bodies, and fragments generated from explosions, collisions, or faulty payload assembly.

Loading next visibility...
Identifier
125, 1961-015K
Orbit
LEO
Last TLE update
1 day ago
Origin
Manufacturer
Unknown
Mission
Spacecraft
Bus & Motor
Unknown
Mass
Unknown
Launch date (UTC)
1961-06-29 (64 years ago)
Launch vehicle
Unknown
Launch site
Air Force Eastern Test Range (AFETR)
Object type
Payload
Rocket body
Debris
Shape & HBR
Unknown
Radar Cross Section
Small (<0.1 m²)

Expand to show TLE details & history

TLE from 1 day ago
0 THOR ABLESTAR DEB
1 00125U 61015K   25182.12823724  .00000291  00000-0  21439-3 0  9992
2 00125  66.8760  87.9464 0078223 317.5670  41.9386 14.07363093267857
Epoch: 2025-07-01T03:04Z
TLE epoch observation values (Epoch: 2025-07-01T03:04:39.697Z)
Latitude
Longitude
122.35286°
Altitude
828.537 km
Speed
7.461 km/s
True Right ascension
05h 51m 47s
True Declination
0° 00' 00"
Sunlit
Object was in daylight at epoch
Visualization orbit readout
Latitude
42.42701°
Longitude
142.50903°
Altitude
873.635 km
Speed
7.42 km/s
Apparent Right ascension
05h 57m 06s
Apparent Declination
4° 43' 54"
Sunlit
Object is in daylight
Visualization observer readout
Local Sidereal Time
16:34:24
Azimuth
331.993° NNW
Elevation
-41.469°
Doppler factor
1
Orbital elements
Apogee altitude
923.453 km
Perigee altitude
810.109 km
Semi-major axis
7,244.918 km
Eccentricity
0.00782
Inclination
66.876°
RAAN
87.9464°
Arg. of periapsis
317.567°
True anomaly
Unknown
Mean anomaly
41.9386°
Eccentric anomaly
Unknown
Mean motion
3.5196 °/min
Orbital period
102.28 mins
BSTAR
0.00021439
Loading maneuver chart data...
Loading SW <> Apogee altitude chart data...

THOR ABLESTAR DEB Visibility forecast

Observer location: undefined°, undefined°

Span
Click to sort rows by Start time (UTC) header in descending order
Start Az.
Max El. time (UTC)
Max El. Az.
Max El.
End time (UTC)
End Az.
11 mins2025-07-02 05:13:55.977Z316.947° NNW2025-07-02 05:18:55.977Z260.969° W33.632°2025-07-02 05:24:55.977Z180.6° SSW
9 mins2025-07-02 18:25:55.977Z170.542° S2025-07-02 18:29:55.977Z106.827° ESE32.269°2025-07-02 18:34:55.977Z44.491° NE
9 mins2025-07-02 20:10:55.977Z251.918° W2025-07-02 20:14:55.977Z308.024° NW28.591°2025-07-02 20:19:55.977Z11.053° NNE
9 mins2025-07-03 03:22:55.977Z353.29° N2025-07-03 03:26:55.977Z49.583° ENE31.12°2025-07-03 03:31:55.977Z115.733° SE
|